User: anonymous   Login
Location: Unspecified
(0.0000°N, 0.0000°E)
Time: 20:08:20
(UTC+00:00)
Language:

STARLINK-5826 - Orbit

View from above orbital plane
View from above orbital plane
View from above satellite
View from above satellite

Ground track
Ground track

The orbit is defined by the following mean orbital elements,

1 55782U          26145.61014883 +.00000000 +00000-0 -59985-5 0 00001
2 55782  70.0002  10.6956 0002638 269.2186  90.8671 14.98329349    01
Epoch (UTC): 25 May 2026 14:38:36
Eccentricity: 0.0002638
inclination: 70.0002°
perigee height: 570 km
apogee height: 574 km
right ascension of ascending node: 10.6956°
argument of perigee: 269.2186°
revolutions per day: 14.98329349
mean anomaly at epoch: 90.8671°

The dashed part of the orbit path shows where the satellite is in the earth's shadow,  

DLR